Location: *
(24.1434°N, 56.8729°E)
Time: 18:11:05
(UTC+00:00)

HJ-1C - Pass Details

Date: 09 April 2020
Orbit: 431 x 447 km, 97.2° (Epoch: 06 June)

Event Time Altitude Azimuth Distance (km) Brightness Sun altitude
Exits shadow 15:08:31 - 151° (SSE) 2,127 6.4 -9.0°
Reaches altitude 10° 15:09:56 10° 144° (SE) 1,553 5.7 -9.3°
Maximum altitude 15:13:01 36° 77° (ENE) 721 4.0 -10.0°
Drops below altitude 10° 15:16:07 10° 9° (N) 1,568 6.2 -10.7°
Sets 15:18:15 0° 0° (N) 2,443 7.3 -11.2°
